Location: Berduj
(43.0019°N, 22.3781°E)
Time: 18:28:11
(UTC+00:00)

H-2A R/B - Pass Details

Date: 19 October 2019
Orbit: 734 x 837 km, 98.3° (Epoch: 17 November)

Event Time Altitude Azimuth Distance (km) Brightness Sun altitude
Exits shadow 18:04:36 38° 20° (NNE) 1,239 2.9 -26.7°
Drops below altitude 10° 18:08:09 10° 356° (N) 2,443 4.8 -27.3°
Sets 18:10:35 0° 352° (N) 3,388 5.6 -27.8°
